TimeCDT,TemperatureF,Dew PointF,Humidity,Sea Level PressureIn,VisibilityMPH,Wind Direction,Wind SpeedMPH,Gust SpeedMPH,PrecipitationIn,Events,Conditions,WindDirDegrees,DateUTC
12:13 AM,30.2,24.8,80,30.03,10.0,NNE,5.8,-,N/A,,Clear,20,2012-11-02 05:13:00
12:32 AM,30.2,24.8,80,30.04,10.0,NNE,4.6,-,N/A,,Clear,20,2012-11-02 05:32:00
12:52 AM,30.2,24.8,80,30.03,10.0,NE,4.6,-,N/A,,Clear,40,2012-11-02 05:52:00
1:12 AM,28.4,23.0,80,30.05,10.0,NNE,5.8,-,N/A,,Clear,20,2012-11-02 06:12:00
1:32 AM,28.4,23.0,80,30.04,10.0,NE,5.8,-,N/A,,Clear,40,2012-11-02 06:32:00
1:52 AM,28.4,23.0,80,30.04,10.0,NE,6.9,-,N/A,,Clear,40,2012-11-02 06:52:00
2:12 AM,28.4,24.8,86,30.03,10.0,NE,4.6,-,N/A,,Clear,50,2012-11-02 07:12:00
2:33 AM,28.4,24.8,86,30.04,10.0,NE,4.6,-,N/A,,Clear,40,2012-11-02 07:33:00
2:52 AM,28.4,24.8,86,30.04,10.0,NE,3.5,-,N/A,,Clear,50,2012-11-02 07:52:00
3:12 AM,28.4,24.8,86,30.04,10.0,NE,4.6,-,N/A,,Clear,50,2012-11-02 08:12:00
3:33 AM,28.4,24.8,86,30.03,10.0,ENE,5.8,-,N/A,,Clear,60,2012-11-02 08:33:00
3:53 AM,28.4,24.8,86,30.03,10.0,ENE,4.6,-,N/A,,Clear,60,2012-11-02 08:53:00
4:12 AM,28.4,24.8,86,30.03,10.0,ENE,5.8,-,N/A,,Clear,60,2012-11-02 09:12:00
4:33 AM,28.4,24.8,86,30.02,10.0,ENE,6.9,-,N/A,,Clear,70,2012-11-02 09:33:00
4:53 AM,28.4,23.0,80,30.03,10.0,ENE,8.1,-,N/A,,Clear,60,2012-11-02 09:53:00
5:12 AM,28.4,23.0,80,30.03,10.0,ENE,6.9,-,N/A,,Clear,70,2012-11-02 10:12:00
5:33 AM,26.6,23.0,86,30.02,10.0,ENE,4.6,-,N/A,,Clear,70,2012-11-02 10:33:00
5:52 AM,26.6,23.0,86,30.03,10.0,ENE,5.8,-,N/A,,Clear,70,2012-11-02 10:52:00
6:12 AM,26.6,24.8,93,30.03,10.0,East,5.8,-,N/A,,Clear,80,2012-11-02 11:12:00
6:33 AM,26.6,23.0,86,30.04,10.0,East,6.9,-,N/A,,Clear,80,2012-11-02 11:33:00
6:52 AM,26.6,23.0,86,30.04,10.0,East,6.9,-,N/A,,Clear,80,2012-11-02 11:52:00
7:12 AM,26.6,24.8,93,30.04,10.0,East,6.9,-,N/A,,Clear,80,2012-11-02 12:12:00
7:33 AM,28.4,24.8,86,30.04,10.0,East,5.8,-,N/A,,Clear,80,2012-11-02 12:33:00
7:52 AM,28.4,24.8,86,30.05,10.0,East,6.9,-,N/A,,Clear,80,2012-11-02 12:52:00
8:12 AM,28.4,24.8,86,30.06,10.0,East,9.2,-,N/A,,Clear,80,2012-11-02 13:12:00
8:53 AM,28.4,24.8,86,30.07,10.0,East,10.4,-,N/A,,Clear,90,2012-11-02 13:53:00
9:12 AM,30.2,24.8,80,30.07,10.0,East,9.2,-,N/A,,Clear,80,2012-11-02 14:12:00
9:33 AM,30.2,24.8,80,30.06,10.0,East,10.4,-,N/A,,Clear,80,2012-11-02 14:33:00
9:52 AM,30.2,24.8,80,30.07,10.0,East,10.4,-,N/A,,Clear,90,2012-11-02 14:52:00
10:12 AM,32.0,26.6,80,30.06,10.0,East,11.5,-,N/A,,Clear,90,2012-11-02 15:12:00
10:33 AM,32.0,26.6,80,30.08,10.0,East,8.1,-,N/A,,Clear,100,2012-11-02 15:33:00
10:52 AM,33.8,26.6,75,30.10,10.0,East,6.9,-,N/A,,Clear,100,2012-11-02 15:52:00
11:12 AM,33.8,26.6,75,30.08,10.0,East,9.2,-,N/A,,Clear,100,2012-11-02 16:12:00
11:33 AM,35.6,26.6,70,30.10,10.0,East,8.1,-,N/A,,Clear,90,2012-11-02 16:33:00
11:52 AM,35.6,26.6,70,30.11,10.0,East,4.6,-,N/A,,Clear,90,2012-11-02 16:52:00
12:12 PM,35.6,26.6,70,30.10,10.0,East,8.1,-,N/A,,Clear,90,2012-11-02 17:12:00
12:33 PM,37.4,26.6,65,30.09,10.0,ENE,9.2,-,N/A,,Clear,70,2012-11-02 17:33:00
12:52 PM,37.4,26.6,65,30.09,10.0,East,8.1,-,N/A,,Clear,80,2012-11-02 17:52:00
1:13 PM,37.4,28.4,70,30.08,10.0,East,8.1,-,N/A,,Clear,90,2012-11-02 18:13:00
1:32 PM,37.4,28.4,70,30.08,10.0,East,8.1,-,N/A,,Clear,90,2012-11-02 18:32:00
1:52 PM,37.4,28.4,70,30.07,10.0,East,8.1,-,N/A,,Scattered Clouds,80,2012-11-02 18:52:00
2:13 PM,39.2,28.4,65,30.08,10.0,East,4.6,-,N/A,,Scattered Clouds,90,2012-11-02 19:13:00
2:32 PM,39.2,28.4,65,30.07,10.0,East,5.8,-,N/A,,Clear,90,2012-11-02 19:32:00
2:53 PM,39.2,28.4,65,30.06,10.0,East,6.9,-,N/A,,Scattered Clouds,90,2012-11-02 19:53:00
3:13 PM,39.2,28.4,65,30.05,10.0,ENE,8.1,-,N/A,,Clear,70,2012-11-02 20:13:00
3:32 PM,39.2,28.4,65,30.05,10.0,East,8.1,-,N/A,,Scattered Clouds,80,2012-11-02 20:32:00
3:53 PM,39.2,28.4,65,30.05,10.0,ENE,8.1,-,N/A,,Scattered Clouds,70,2012-11-02 20:53:00
4:12 PM,39.2,28.4,65,30.06,10.0,ENE,9.2,-,N/A,,Clear,60,2012-11-02 21:12:00
4:32 PM,39.2,28.4,65,30.06,10.0,NE,9.2,-,N/A,,Scattered Clouds,50,2012-11-02 21:32:00
4:53 PM,39.2,28.4,65,30.06,10.0,ENE,8.1,-,N/A,,Mostly Cloudy,60,2012-11-02 21:53:00
5:12 PM,39.2,28.4,65,30.06,10.0,NE,8.1,-,N/A,,Overcast,50,2012-11-02 22:12:00
5:32 PM,39.2,28.4,65,30.07,10.0,NE,6.9,-,N/A,,Overcast,50,2012-11-02 22:32:00
5:53 PM,39.2,28.4,65,30.07,10.0,ENE,8.1,-,N/A,,Overcast,60,2012-11-02 22:53:00
6:12 PM,39.2,28.4,65,30.07,10.0,ENE,6.9,-,N/A,,Overcast,60,2012-11-02 23:12:00
6:32 PM,39.2,28.4,65,30.06,10.0,ENE,10.4,-,N/A,,Overcast,60,2012-11-02 23:32:00
6:53 PM,39.2,28.4,65,30.07,10.0,ENE,6.9,-,N/A,,Overcast,60,2012-11-02 23:53:00
7:12 PM,37.4,28.4,70,30.07,10.0,NE,6.9,-,N/A,,Overcast,50,2012-11-03 00:12:00
7:32 PM,37.4,28.4,70,30.08,10.0,NE,5.8,-,N/A,,Overcast,40,2012-11-03 00:32:00
7:53 PM,37.4,28.4,70,30.09,10.0,NE,8.1,-,N/A,,Overcast,40,2012-11-03 00:53:00
8:12 PM,37.4,28.4,70,30.10,10.0,NE,6.9,-,N/A,,Overcast,40,2012-11-03 01:12:00
8:32 PM,37.4,28.4,70,30.11,10.0,NNE,6.9,-,N/A,,Overcast,20,2012-11-03 01:32:00
8:53 PM,37.4,28.4,70,30.12,10.0,North,5.8,-,N/A,,Overcast,10,2012-11-03 01:53:00
9:32 PM,35.6,28.4,75,30.12,10.0,NNE,8.1,-,N/A,,Overcast,30,2012-11-03 02:32:00
9:53 PM,35.6,28.4,75,30.12,10.0,NE,6.9,-,N/A,,Overcast,50,2012-11-03 02:53:00
10:12 PM,35.6,28.4,75,30.12,10.0,ENE,5.8,-,N/A,,Overcast,60,2012-11-03 03:12:00
10:32 PM,35.6,28.4,75,30.12,10.0,ENE,8.1,-,N/A,,Overcast,60,2012-11-03 03:32:00
10:53 PM,35.6,28.4,75,30.12,10.0,ENE,6.9,-,N/A,,Overcast,70,2012-11-03 03:53:00
11:12 PM,35.6,28.4,75,30.13,10.0,NE,4.6,-,N/A,,Overcast,40,2012-11-03 04:12:00
11:32 PM,35.6,28.4,75,30.13,10.0,NE,3.5,-,N/A,,Overcast,40,2012-11-03 04:32:00
11:53 PM,35.6,28.4,75,30.13,10.0,ENE,4.6,-,N/A,,Overcast,60,2012-11-03 04:53:00